Location: Lancaster
(54.0470°N, 2.8020°W)
Time: 06:28:04
(UTC+01:00)

COSMOS 2428 - Visible Passes

Search period start: 01 June 2016 00:00
Search period end: 11 June 2016 00:00
Orbit: 846 x 856 km, 70.9° (Epoch: 31 May)

Date Brightness Start Highest point End Pass type
(mag) Time Alt. Az. Time Alt. Az. Time Alt. Az.
01 Jun 4.8 01:38:42 10° NNW 01:43:36 28° NE 01:48:28 10° E visible
01 Jun 2.7 03:22:51 10° NNW 03:28:35 87° WSW 03:34:16 10° SSE visible
01 Jun 5.5 23:41:53 10° NNW 23:45:08 15° N 23:48:22 10° NE visible
02 Jun 4.7 01:26:30 10° NNW 01:31:24 28° NE 01:36:16 10° E visible
02 Jun 2.7 03:10:39 10° NNW 03:16:24 87° SW 03:22:04 10° SSE visible
02 Jun 5.5 23:29:41 10° NNW 23:32:56 15° N 23:36:10 10° NE visible
03 Jun 4.7 01:14:18 10° NNW 01:19:12 28° NE 01:24:04 10° E visible
03 Jun 2.7 02:58:27 10° NNW 03:04:11 87° WSW 03:09:53 10° SSE visible
03 Jun 5.4 23:17:29 10° NNW 23:20:44 15° N 23:23:58 10° NE visible
04 Jun 4.7 01:02:05 10° NNW 01:07:00 28° NE 01:11:53 10° E visible
04 Jun 2.7 02:46:15 10° NNW 02:51:59 87° WSW 02:57:40 10° SSE visible
04 Jun 5.4 23:05:18 10° NNW 23:08:32 15° N 23:11:46 10° NE visible
05 Jun 4.6 00:49:54 10° NNW 00:54:48 28° NE 00:59:41 10° E visible
05 Jun 2.7 02:34:03 10° NNW 02:39:47 87° WSW 02:45:28 10° SSE visible
05 Jun 5.4 22:53:06 10° NNW 22:56:20 15° N 22:59:34 10° NE visible
06 Jun 4.6 00:37:42 10° NNW 00:42:35 28° NE 00:47:29 10° E visible
06 Jun 2.7 02:21:51 10° NNW 02:27:35 87° WSW 02:33:16 10° SSE visible
06 Jun 5.3 22:40:54 10° NNW 22:44:08 15° N 22:47:22 10° NE visible
07 Jun 4.6 00:25:30 10° NNW 00:30:24 28° NE 00:35:17 10° E visible
07 Jun 2.7 02:09:39 10° NNW 02:15:23 87° WSW 02:21:04 10° SSE visible
07 Jun 5.3 22:28:41 10° NNW 22:31:56 15° N 22:35:10 10° NE visible
08 Jun 4.5 00:13:18 10° NNW 00:18:12 28° NE 00:23:05 10° E visible
08 Jun 2.7 01:57:27 10° NNW 02:03:11 87° WSW 02:08:52 10° SSE visible
08 Jun 4.2 03:42:48 10° WNW 03:46:40 19° W 03:50:32 10° SW visible
09 Jun 4.5 00:01:06 10° NNW 00:06:00 28° NE 00:10:52 10° E visible
09 Jun 2.7 01:45:15 10° NNW 01:50:59 87° WSW 01:56:40 10° SSE visible
09 Jun 4.2 03:30:36 10° WNW 03:34:28 19° W 03:38:20 10° SW visible
09 Jun 4.5 23:48:53 10° NNW 23:53:48 28° NE 23:58:40 10° E visible
10 Jun 2.7 01:33:02 10° NNW 01:38:46 87° WSW 01:44:26 10° SSE visible
10 Jun 4.2 03:18:24 10° WNW 03:22:16 19° W 03:26:08 10° SW visible
10 Jun 4.4 23:36:42 10° NNW 23:41:36 28° NE 23:46:28 10° E visible
